Location: Chena
(64.8152°N, 147.9227°W)
Time: 01:12:58
(UTC+00:00)

Vanguard 2 - Pass Details

Date: 05 March 2021
Orbit: 552 x 2938 km, 32.9° (Epoch: 10 April)

Event Time Altitude Azimuth Distance (km) Brightness Sun altitude
Exits shadow 14:44:30 - 219° (SW) 5,781 11.5 -13.5°
Reaches altitude 10° 14:48:43 10° 206° (SSW) 5,351 11.4 -13.1°
Maximum altitude 14:57:18 17° 174° (S) 5,107 11.6 -12.2°
Drops below altitude 10° 15:06:28 10° 142° (SE) 5,764 12.3 -11.2°
Sets 15:13:18 0° 126° (SE) 6,668 13.1 -10.5°
